Location: Unspecified
(0.0000°N, 0.0000°E)
Time: 07:38:36
(UTC+00:00)

N. Korean satellite - Pass Details

Date: 12 January 2019
Orbit: 455 x 511 km, 97.2° (Epoch: 18 March)

Event Time Altitude Azimuth Distance (km) Brightness Sun altitude
Rises 05:13:37 0° 35° (NE) 2,590 10.4 -12.6°
Reaches altitude 10° 05:16:06 10° 52° (NE) 1,702 9.7 -12.1°
Maximum altitude 05:18:51 20° 101° (E) 1,189 9.6 -11.4°
Drops below altitude 10° 05:21:35 10° 150° (SSE) 1,686 10.1 -10.8°
Sets 05:24:01 0° 167° (SSE) 2,559 10.8 -10.2°
